{"data":{"norad_id":53015,"intl_designator":"2022-076AF","name":"STARLINK-4262","alt_names":[],"object_type":"PAYLOAD","status":"ACTIVE","operator":null,"country":"US","launch_date":"2022-07-07","launch_site_code":"AFETR","launch_vehicle":null,"mission":null,"orbit_class":"UNKNOWN","rcs_meters":null,"size_class":null,"mass_kg":null,"dimensions":null,"purposes":["comms"],"wikipedia_slug":null,"has_3d_model":false,"image_url":null,"decayed_at":null,"tle_current":{"epoch":"2026-09-19T16:21:36.692352Z","epoch_age_seconds":139615,"freshness":"FRESH","line1":"1 53015U 22076AF  26262.68167468  .00000567  00000+0  27152-4 0  9993","line2":"2 53015  53.1611 285.3578 0001332  73.1235 286.9914 15.35404515232370","mean_motion":15.35404515,"eccentricity":0.0001332,"inclination_deg":53.1611,"raan_deg":285.3578,"arg_perigee_deg":73.1235,"mean_anomaly_deg":286.9914,"bstar":2.7152e-5,"rev_number":23237,"period_min":93.786359616117,"perigee_km":458.80843535522,"apogee_km":460.63004025698,"semimajor_km":6837.8562378061,"source":"CELESTRAK","updated_at":"2026-09-20T09:00:40.144944Z"}}}